Location: Bonac
(42.8765°N, 0.9753°E)
Time: 19:34:50
(UTC+00:00)

Cosmos 1339 Rocket - Pass Details

Date: 12 January 2026
Orbit: 941 x 1006 km, 82.9° (Epoch: 13 February)

Event Time Altitude Azimuth Distance (km) Brightness Sun altitude
Rises 19:14:21 0° 187° (S) 3,669 7.7 -27.0°
Reaches altitude 10° 19:16:52 10° 188° (S) 2,716 6.9 -27.5°
Maximum altitude 19:23:06 86° 277° (W) 972 4.4 -28.6°
Enters shadow 19:25:12 45° 3° (N) 1,295 5.0 -29.0°
